Theta_e
356 356 354 353 352 350 355 355 354 356 358 354 354 352 350 354 346 343 344 346 342 345 343 341 357 358 361 364 356 354 356 360 358 357 361 360 362 355 350 355 354 354 354 355 356 356 358 360 362 362 363 362 361 360 360 361 361 361 362 362 363 363 362 358 355 352 348 344 341 341 340 339 339 341
363 359 355 353 351 354 355 353 353 356 359 354 354 353 355 356 351 349 347 347 350 345 346 342 344 361 361 350 354 355 356 363 365 359 361 360 360 350 353 356 355 355 354 354 353 354 356 357 358 356 355 354 354 355 358 360 361 362 362 362 362 362 360 356 354 353 349 345 342 341 341 340 340 340
360 361 358 358 354 356 353 354 352 354 354 354 353 353 355 354 356 354 352 347 355 353 347 346 346 346 350 352 351 348 355 355 360 359 364 365 357 352 359 356 356 355 354 352 350 349 351 352 351 350 350 351 352 355 358 359 359 360 360 361 361 361 358 354 353 352 351 347 343 342 342 341 340 339
362 365 362 362 360 359 359 358 355 354 356 354 352 351 352 354 357 358 355 352 351 357 349 349 349 346 350 351 348 348 350 352 359 365 360 365 357 369 359 352 354 355 353 352 350 348 347 346 346 349 350 351 353 356 358 358 357 357 358 358 358 356 354 351 350 351 350 348 344 342 342 341 340 339
363 364 362 362 363 365 361 359 356 353 352 354 353 354 353 351 355 356 355 352 352 358 359 355 351 354 355 349 355 352 353 356 358 357 362 364 357 354 353 352 353 352 352 350 347 347 346 344 344 346 349 351 352 354 356 354 353 353 353 352 349 347 347 346 347 348 348 347 345 343 342 341 340 339
361 363 365 363 362 363 361 358 355 355 351 350 350 351 350 352 355 359 355 354 353 353 358 355 359 355 356 352 357 357 355 356 360 358 359 358 354 352 354 354 360 350 353 347 345 346 344 343 344 345 347 349 351 351 350 348 345 345 344 341 339 340 339 340 342 344 345 346 345 343 342 341 340 339
363 361 362 360 360 356 356 357 356 354 353 353 352 352 353 354 353 354 356 355 353 354 355 359 355 356 357 357 357 359 357 362 359 360 357 351 348 351 352 351 349 348 348 347 346 344 344 344 343 343 344 346 346 346 344 340 337 336 336 334 336 338 337 337 339 341 342 343 344 343 342 341 340 339
365 364 364 360 357 358 358 359 360 358 355 357 359 358 359 358 357 360 360 360 359 357 354 359 358 358 358 359 359 357 358 355 356 355 357 355 353 352 352 351 349 350 343 348 346 346 344 343 343 342 342 341 339 337 336 335 335 335 334 334 334 334 334 333 334 337 337 337 339 341 341 341 340 338
366 366 365 362 361 360 357 358 357 358 361 362 360 359 360 362 361 362 362 363 361 359 357 358 362 363 361 360 360 362 357 356 358 360 361 356 357 359 355 353 349 346 341 343 344 343 344 344 342 341 341 341 340 339 337 336 335 334 333 333 332 333 333 332 330 331 331 332 333 333 335 337 338 337
362 361 361 359 360 359 358 358 358 363 363 364 359 357 359 361 363 363 363 364 364 362 361 362 356 361 356 359 361 363 361 356 354 358 362 363 363 364 357 356 356 354 349 348 348 344 345 342 336 339 342 340 339 339 338 338 336 334 332 329 329 331 331 331 331 329 328 329 330 331 332 333 334 335
361 361 360 362 362 362 361 358 359 361 363 361 362 364 365 364 362 360 362 362 361 362 360 357 356 355 357 358 355 360 364 364 363 363 358 356 357 361 362 362 357 356 353 352 348 349 347 346 350 340 335 336 337 338 339 338 337 336 332 328 328 328 328 328 328 329 328 327 327 326 326 328 332 333
357 358 358 357 360 360 362 362 361 361 360 363 364 364 364 366 366 363 359 360 359 358 355 353 351 354 359 359 358 358 361 359 358 354 350 350 353 355 365 359 354 358 357 356 353 347 347 347 346 336 337 338 337 338 339 340 341 340 337 333 333 332 329 328 328 327 326 325 324 323 322 322 326 330
358 357 356 356 356 364 364 367 370 369 365 359 361 362 362 362 359 359 360 360 360 359 356 355 356 352 354 356 356 351 349 350 349 350 348 350 349 351 351 359 359 358 356 355 353 352 358 358 356 357 362 367 359 356 342 348 349 344 338 336 336 334 332 329 328 328 326 324 323 322 322 321 322 325
357 356 356 355 357 362 362 365 368 364 363 366 362 361 365 364 364 362 360 359 358 355 353 351 351 347 344 341 346 344 345 349 352 349 353 349 348 353 354 361 362 362 359 354 359 358 360 357 359 362 362 361 365 361 363 363 360 352 340 337 335 334 333 331 329 328 326 324 323 322 321 321 322 322
354 353 352 354 363 367 371 368 371 367 363 362 358 357 361 366 363 358 356 357 358 356 354 352 348 343 346 346 349 347 343 342 345 349 356 354 356 355 353 351 361 368 366 366 362 362 364 364 361 363 362 363 362 361 358 349 344 344 341 338 336 334 333 333 332 329 326 324 323 322 320 320 321 320
355 353 352 352 351 352 357 357 366 370 366 359 359 357 356 355 356 358 362 358 355 356 352 350 350 350 349 349 352 347 345 351 356 360 361 362 359 357 355 355 354 365 368 364 363 360 366 365 363 364 363 363 362 358 348 342 343 339 338 336 335 335 334 333 333 332 330 327 326 325 324 322 322 321
355 354 356 356 354 348 365 364 361 367 371 363 357 358 357 357 354 343 341 346 364 360 361 356 355 354 353 354 356 356 359 363 361 363 360 361 361 361 358 357 357 364 373 367 362 359 363 366 364 360 361 363 363 362 349 343 342 339 336 336 336 335 334 333 332 331 330 328 326 325 324 322 322 321
355 355 356 357 354 356 357 368 367 366 367 369 372 370 370 369 369 355 343 340 340 350 356 357 356 359 362 359 362 368 368 363 363 361 360 361 357 359 358 362 362 365 367 359 361 359 361 363 359 357 362 364 363 367 351 341 343 339 335 335 335 334 332 331 331 330 329 328 326 324 322 321 320 320
355 359 357 359 357 360 357 346 347 362 366 367 364 364 362 361 362 362 363 363 360 359 357 359 361 362 364 366 369 364 367 363 363 363 364 362 360 359 361 359 361 359 365 365 361 353 357 360 356 356 358 359 362 366 350 343 344 338 334 334 335 333 331 331 331 330 329 328 326 324 321 320 318 317
361 361 361 360 362 359 350 332 330 339 355 360 359 360 362 362 358 355 362 345 346 361 359 357 356 357 359 341 356 358 355 360 363 362 361 360 359 354 354 353 353 353 362 363 360 353 352 358 353 355 357 357 357 360 362 346 346 339 333 335 334 333 331 330 330 330 329 328 326 324 321 318 316 315
357 359 362 360 360 354 345 327 321 326 345 359 360 361 360 360 360 359 358 349 344 338 333 331 332 331 329 329 330 329 329 343 349 355 353 354 355 351 351 349 348 351 357 361 362 356 351 356 356 354 358 359 357 358 359 361 346 340 334 332 332 332 331 329 328 328 328 327 326 325 324 319 316 316
354 354 357 352 349 347 342 319 319 320 342 356 359 359 357 357 357 358 360 360 360 347 340 335 330 329 331 330 328 328 328 328 338 352 346 350 352 349 349 348 349 352 355 359 364 358 354 357 359 355 358 359 359 358 360 363 359 346 340 328 328 330 330 329 327 327 327 326 326 324 322 319 316 329
354 351 347 344 336 338 329 315 317 319 336 350 354 357 356 354 354 355 354 356 357 359 360 362 364 366 356 365 366 364 352 345 349 353 350 350 352 348 348 348 348 346 351 362 365 353 353 354 355 354 349 349 355 360 361 361 364 365 366 362 367 333 329 330 327 325 324 325 324 324 320 317 317 344
351 353 348 340 322 318 316 314 312 314 316 340 349 352 354 352 351 351 350 353 354 356 357 358 358 357 360 360 361 362 360 362 360 359 358 357 354 350 347 347 347 345 348 356 360 353 353 354 351 360 353 345 344 354 359 359 363 363 364 363 360 347 338 330 328 323 322 323 322 321 320 316 318 346
350 350 349 341 326 316 314 312 310 310 314 320 344 351 349 347 343 335 348 351 353 355 357 357 356 356 357 358 356 357 358 359 361 362 360 358 354 352 347 348 348 348 350 356 349 354 349 351 349 352 353 353 351 351 354 358 360 361 361 361 361 365 365 364 356 365 331 320 318 317 316 316 314 333
344 345 347 339 329 315 313 311 312 313 317 321 348 345 316 313 318 345 349 350 353 355 354 353 352 351 354 351 353 353 352 354 355 355 359 356 358 357 355 352 349 346 348 357 346 354 350 350 349 349 350 349 348 352 350 353 357 360 361 361 361 361 363 360 359 361 366 371 360 331 330 317 316 316
340 344 342 340 330 314 308 308 313 315 319 330 334 312 313 316 318 330 350 351 351 351 351 350 349 348 349 348 349 349 350 350 354 352 352 353 355 358 360 360 358 358 357 360 361 356 352 349 354 350 346 348 346 348 350 350 353 358 357 358 359 359 360 360 358 359 359 361 364 336 320 318 315 316
327 329 329 330 313 307 303 306 313 317 326 333 316 313 316 321 333 348 346 343 346 345 344 343 343 344 345 345 345 345 348 347 349 349 349 350 351 350 354 362 365 362 361 361 361 356 355 351 352 354 351 349 346 343 344 351 352 352 352 357 359 363 365 360 358 356 358 359 360 368 361 354 341 330
327 323 315 311 309 310 309 311 314 315 324 322 319 319 319 338 344 343 342 342 343 341 341 340 340 341 342 341 342 345 347 348 348 349 348 349 348 347 347 349 352 352 347 350 360 358 356 353 351 351 352 352 348 348 349 347 349 350 353 353 351 356 360 363 362 360 356 358 359 358 358 360 360 348
323 318 314 314 314 317 322 338 336 333 334 328 327 326 333 341 339 337 336 337 337 337 336 336 336 337 339 339 342 346 347 344 343 345 343 341 341 341 340 340 342 345 344 343 349 363 362 358 355 352 351 352 351 349 350 349 348 350 351 352 353 354 357 368 360 360 358 356 357 360 362 361 363 362
329 331 328 325 320 319 321 324 328 334 332 337 332 332 329 335 333 331 333 332 334 333 332 333 334 335 336 339 341 339 339 340 342 342 338 337 336 337 338 338 338 338 340 343 342 344 345 353 358 359 353 350 350 350 351 351 349 350 351 353 354 348 354 357 356 356 361 361 361 361 363 363 363 361
329 332 334 328 334 336 335 334 332 331 331 329 329 330 325 329 330 329 331 330 331 331 330 331 332 332 334 333 333 334 335 335 335 335 333 333 333 335 335 334 334 332 335 338 338 343 346 346 347 350 354 355 349 348 349 350 349 350 350 351 354 356 359 357 355 357 362 360 357 357 359 361 362 363
329 332 330 327 325 325 323 323 324 323 324 324 326 327 325 327 326 325 328 325 325 326 327 327 328 327 330 330 331 331 330 331 331 333 332 333 332 333 333 330 328 327 326 328 330 335 340 342 345 344 347 348 351 353 351 346 348 352 351 351 352 351 355 361 357 355 359 357 355 355 356 359 360 361
326 328 326 323 322 322 323 322 322 321 323 324 323 324 324 324 324 323 325 323 322 326 325 325 324 326 327 327 327 327 326 328 328 328 326 329 331 329 327 325 326 328 328 326 327 330 332 334 337 341 345 348 349 356 359 353 351 352 351 353 353 351 352 355 358 359 359 358 355 353 353 354 357 361
327 324 323 322 323 322 324 322 321 322 323 323 323 324 323 324 324 323 324 321 323 324 324 323 323 325 325 324 325 323 325 325 325 327 327 326 327 325 324 324 325 325 324 325 326 329 328 328 331 331 335 338 337 344 348 364 348 339 339 340 339 339 342 346 349 352 355 354 354 354 352 353 355 358
325 324 323 323 322 322 322 322 322 322 322 323 324 323 324 323 324 325 323 322 325 323 323 321 322 324 323 323 322 322 322 322 323 324 324 324 324 324 324 324 323 323 323 324 323 325 326 327 328 327 325 325 325 325 331 344 342 336 330 328 332 338 336 338 342 344 344 345 350 350 345 344 346 353
322 322 322 322 323 322 321 321 321 322 321 322 322 322 322 321 322 324 325 325 325 323 321 321 322 322 322 321 320 321 321 321 321 322 322 322 323 322 321 320 321 322 322 322 322 323 327 327 327 325 324 324 324 322 322 330 325 327 333 329 332 331 333 336 340 341 344 345 346 344 343 343 344 348
321 320 320 321 321 321 321 321 320 320 320 321 321 322 321 321 322 322 324 323 321 320 320 320 321 321 320 320 320 319 320 320 320 320 320 320 320 320 319 318 319 319 318 320 322 324 326 325 324 325 326 323 319 317 317 321 324 325 326 331 327 330 333 336 336 338 342 342 339 341 341 339 341 344
319 318 319 318 319 320 319 319 319 319 320 320 319 320 319 320 320 320 321 320 319 318 318 320 320 319 319 320 319 319 319 318 318 318 318 319 319 318 317 317 316 316 317 319 322 323 323 322 323 324 324 320 317 317 318 319 320 326 326 320 329 332 334 336 336 335 332 329 330 337 340 344 341 332
317 317 318 317 317 318 318 319 319 319 318 318 318 319 318 318 317 318 318 317 316 318 319 319 319 317 319 318 318 318 317 317 316 316 316 316 316 316 315 315 314 315 317 317 317 319 319 320 322 322 320 320 321 323 324 325 326 329 331 331 317 328 338 334 329 328 328 332 336 334 332 333 332 336
316 315 316 317 317 317 316 316 317 317 316 317 318 318 318 317 317 317 315 315 318 318 317 317 319 319 317 316 316 315 315 314 314 315 316 315 314 313 312 312 314 315 315 315 316 316 317 320 323 320 325 324 326 327 323 321 320 322 324 327 319 318 318 320 334 334 331 333 330 327 325 325 325 328
315 315 315 316 315 315 315 315 315 315 316 315 315 315 316 316 317 317 315 317 318 318 316 316 316 315 315 315 314 313 313 312 313 313 313 312 311 311 312 313 313 313 312 311 312 314 318 322 323 323 323 323 321 318 316 317 317 319 323 324 327 321 320 318 316 318 333 330 327 326 327 330 332 329
316 315 315 315 316 315 314 314 314 314 313 314 314 314 314 314 314 314 314 315 315 314 314 314 314 314 314 313 312 313 311 311 311 311 310 310 311 310 311 312 312 312 312 312 314 316 317 318 320 319 320 319 319 319 317 318 319 319 320 321 322 325 326 322 320 318 317 317 318 324 332 331 328 324
315 314 313 313 313 314 314 314 313 314 314 314 313 313 313 312 312 313 313 312 312 312 313 312 312 312 312 312 311 311 310 310 309 309 309 309 310 310 310 310 310 310 311 311 312 313 314 316 317 317 316 316 317 317 317 318 317 318 318 320 321 322 322 324 327 322 321 321 320 317 316 316 320 323
314 313 313 312 312 312 313 313 312 313 312 312 312 312 311 311 311 311 312 311 311 311 311 311 311 311 311 310 309 307 308 308 308 309 309 309 309 309 309 309 309 309 309 309 309 310 311 312 314 316 315 316 317 316 316 317 317 317 317 318 318 319 320 322 321 320 321 323 321 319 318 318 319 318
Wind_Speed
4 3 1 2 3 3 2 3 5 3 2 4 3 2 2 2 3 4 4 3 5 5 6 3 5 2 4 7 7 7 7 3 4 6 5 5 6 8 8 9 10 8 8 8 8 7 6 7 8 9 10 10 10 10 10 10 10 11 11 11 12 12 12 11 9 10 9 10 10 10 9 8 7 6
3 4 4 2 3 2 3 5 4 3 2 3 4 3 2 0 3 3 4 5 6 6 7 8 3 6 3 7 7 6 5 10 5 6 6 6 7 6 13 14 15 11 9 9 9 7 6 6 7 8 10 10 10 10 10 10 9 10 11 11 12 11 11 10 9 9 9 10 10 10 10 9 8 6
4 3 3 3 4 4 4 4 4 3 2 3 4 4 3 3 3 4 3 5 3 5 6 7 9 8 8 7 7 8 7 1 2 7 6 6 6 9 12 17 17 12 11 9 9 9 7 6 7 9 10 10 10 9 9 9 8 9 10 11 11 11 10 10 9 9 9 10 11 11 11 10 8 7
2 2 3 3 4 4 4 4 4 4 4 5 5 4 4 2 3 3 4 5 6 5 7 7 8 10 8 8 8 8 8 4 7 5 6 7 6 9 8 11 14 14 10 10 11 10 7 7 8 9 9 10 10 9 8 8 7 8 9 10 10 10 10 9 9 9 9 10 11 11 11 11 9 8
4 4 4 4 5 4 5 5 5 5 5 5 6 5 5 6 5 4 3 5 6 6 6 6 7 7 7 8 6 8 8 7 6 7 7 7 9 9 7 7 4 9 11 11 12 10 7 7 8 9 9 10 11 10 9 9 7 7 7 8 9 9 9 9 9 9 9 10 11 11 11 11 10 9
5 4 5 5 6 6 6 6 6 6 6 6 5 4 4 4 4 3 4 4 5 7 6 6 6 8 7 7 5 6 8 8 6 8 7 8 8 7 7 7 1 13 12 13 13 10 8 8 9 10 10 11 12 12 11 10 9 8 8 8 8 8 9 9 8 8 8 10 10 11 11 11 11 10
5 6 5 6 6 6 7 6 6 6 6 5 5 5 4 5 5 5 4 4 6 7 7 6 7 6 6 7 7 7 7 6 7 6 7 8 8 8 8 7 6 14 12 15 13 9 9 10 11 11 12 12 12 12 12 12 10 8 7 8 8 8 9 9 9 8 8 9 10 11 12 12 12 12
5 6 6 6 7 6 5 5 5 5 6 5 3 4 4 5 6 5 5 5 6 6 7 6 7 7 7 7 7 7 6 8 7 7 7 8 8 9 9 8 8 10 14 15 12 10 11 12 13 13 12 13 13 13 12 12 11 9 8 8 9 9 9 10 9 9 9 9 10 11 11 12 12 11
6 6 6 6 6 6 6 6 6 6 5 4 5 5 5 4 4 4 4 5 5 6 7 7 6 7 7 7 8 6 7 7 6 6 6 8 8 8 9 9 9 12 11 13 13 11 12 15 14 13 13 14 14 14 13 12 11 10 9 8 9 9 9 10 10 10 10 10 10 11 11 12 12 12
7 7 7 7 6 6 6 6 5 4 4 5 6 6 5 5 5 5 6 6 6 7 7 7 8 7 7 6 6 6 6 7 7 7 6 6 5 5 8 8 8 8 8 8 5 8 12 15 16 14 15 16 16 16 15 13 12 12 11 11 10 10 10 10 11 11 11 11 11 11 12 12 12 12
8 8 8 7 7 7 6 7 6 5 5 6 6 5 5 6 6 6 6 6 7 7 7 7 8 7 5 6 7 5 5 7 6 7 7 7 5 5 6 8 8 8 9 10 11 14 15 13 8 11 15 15 16 17 15 14 15 14 13 12 10 10 10 10 11 11 11 11 11 12 13 13 13 13
8 8 8 8 8 8 7 7 6 6 6 5 6 5 5 4 5 6 7 7 6 7 7 8 7 7 6 6 6 7 5 5 5 6 7 7 6 6 5 7 8 8 9 10 10 9 7 9 12 15 16 16 16 17 16 18 16 15 13 12 11 10 11 10 10 11 11 11 12 12 13 13 13 14
8 8 7 8 8 7 9 3 4 5 5 4 4 5 5 6 6 6 6 6 6 7 8 8 7 8 7 6 7 6 5 6 7 7 7 6 7 7 8 6 7 8 9 9 11 10 10 11 12 12 11 9 11 13 18 15 17 16 14 13 11 11 11 10 10 10 11 11 12 12 13 13 14 14
8 8 8 7 10 3 5 4 5 4 6 3 6 5 5 6 6 6 7 7 7 7 8 8 8 8 8 8 7 7 8 7 7 6 5 7 8 8 9 8 7 8 10 11 9 10 10 12 13 12 11 11 10 10 7 6 6 11 15 13 12 12 11 9 9 10 11 11 12 12 13 13 13 14
9 8 9 9 6 8 8 7 8 9 8 10 10 9 8 6 6 7 8 7 7 8 8 8 9 9 9 9 9 9 10 9 9 8 7 8 8 8 9 10 8 6 7 8 9 9 10 11 12 11 11 11 11 10 8 3 5 11 15 15 13 12 9 8 8 9 10 11 12 12 12 12 13 13
8 8 8 7 7 6 9 6 6 8 10 11 10 10 9 10 10 9 8 8 8 8 8 8 9 9 9 9 8 10 10 9 9 8 8 8 8 9 9 9 10 7 8 9 10 12 9 10 10 10 10 10 11 11 10 9 9 11 13 13 13 9 8 8 8 9 10 10 11 11 12 12 12 12
7 9 7 7 7 3 13 11 10 9 10 11 13 12 11 12 12 12 12 12 10 8 8 9 9 9 9 9 9 10 10 9 10 9 9 8 8 8 10 11 11 10 8 10 11 11 10 9 8 10 10 10 10 11 11 9 6 9 10 11 9 9 8 8 8 8 9 10 11 12 12 13 12 12
8 7 8 7 7 8 3 8 6 5 5 6 7 8 8 9 11 14 16 16 17 14 10 9 9 9 8 8 9 10 9 10 9 9 10 11 11 11 11 13 13 12 10 11 11 12 10 8 9 11 10 9 11 9 11 12 8 10 11 11 10 9 9 9 9 9 9 10 10 11 12 13 13 13
8 7 8 6 8 6 9 8 10 7 5 5 6 8 9 10 10 8 9 10 9 8 10 10 10 8 8 8 8 8 7 9 9 9 11 11 12 12 12 11 11 12 9 11 7 10 10 9 10 11 10 10 9 9 9 12 10 9 12 12 11 10 11 11 10 10 10 10 10 10 11 12 12 13
9 11 11 8 7 7 8 9 12 11 8 6 7 9 9 10 10 10 10 9 10 10 8 9 10 8 9 8 9 8 7 6 8 9 9 10 11 12 9 9 10 11 5 8 8 9 10 9 11 11 10 11 10 10 10 13 16 11 9 10 11 13 12 12 12 11 11 11 11 11 11 11 12 11
4 5 8 7 4 7 7 10 11 12 10 6 7 8 9 9 9 8 8 9 9 8 10 11 10 10 11 12 12 14 14 9 6 7 8 9 9 9 9 8 9 9 8 6 6 8 11 9 9 11 10 10 11 11 10 9 9 2 9 12 14 14 13 13 14 13 12 12 12 12 12 12 10 8
6 9 16 11 7 7 7 9 9 10 9 6 7 8 9 9 9 7 7 7 7 8 8 8 7 8 12 13 12 13 14 14 5 4 8 10 9 10 10 10 11 11 10 7 7 7 9 10 8 10 10 9 8 11 9 8 8 6 6 12 12 13 14 15 14 13 13 13 13 13 13 11 8 6
5 5 10 15 10 7 5 5 6 7 7 6 6 7 8 9 9 7 9 9 10 10 10 9 9 9 7 5 6 8 5 2 2 4 5 6 7 9 10 10 11 11 8 5 9 9 10 11 10 8 11 11 9 8 9 10 8 9 9 9 6 13 15 15 15 14 14 14 14 14 13 10 9 5
3 2 5 9 13 11 11 9 9 8 7 5 6 7 7 7 8 8 10 9 9 9 9 10 10 9 8 9 9 7 7 5 1 4 4 4 6 7 8 7 8 10 10 6 10 8 10 8 10 6 4 9 10 9 10 9 9 8 9 9 10 10 7 10 10 15 16 15 15 14 13 11 11 6
1 2 5 6 10 11 11 9 9 6 5 4 6 5 5 6 6 7 8 9 10 9 8 8 8 6 6 7 6 7 7 5 4 3 3 4 4 5 6 8 9 10 8 3 4 7 8 9 11 9 7 6 10 12 10 10 9 7 8 9 11 8 10 8 7 6 11 16 16 14 11 12 15 10
7 7 5 5 7 10 10 10 9 7 4 6 4 5 6 10 8 6 7 8 7 7 6 8 7 6 5 6 7 7 7 8 8 8 6 4 3 4 6 9 10 10 12 2 3 8 9 9 8 9 8 9 11 8 11 12 10 7 7 8 8 10 11 11 10 9 8 4 4 8 11 15 15 17
6 4 5 5 11 10 9 10 10 10 8 7 4 8 10 9 9 7 5 6 6 6 7 7 7 7 7 7 7 7 8 8 8 9 9 8 6 2 5 9 9 8 9 8 3 6 8 8 6 8 9 8 11 11 10 11 10 8 9 8 9 9 9 9 12 12 11 9 8 7 11 10 14 15
6 4 3 4 8 10 11 10 9 9 6 4 8 11 11 11 8 4 6 5 6 6 6 6 6 6 6 7 7 7 8 9 9 10 9 9 9 9 7 5 5 7 9 8 3 2 2 8 8 6 8 10 10 11 12 10 10 10 11 11 8 6 4 5 9 11 13 14 12 7 2 4 6 6
5 2 2 6 9 10 11 12 11 9 7 5 9 12 12 11 3 4 4 5 5 5 5 5 6 6 6 7 7 8 9 9 9 8 7 8 9 9 8 8 7 8 8 5 4 1 2 3 5 6 6 7 9 9 10 13 12 11 9 11 12 9 8 4 6 6 9 11 10 11 12 10 6 4
3 4 8 10 11 11 9 7 3 1 2 7 11 12 13 7 5 5 5 5 5 5 6 6 6 6 7 7 8 8 7 8 8 8 8 9 9 9 9 9 8 8 7 7 4 2 2 3 3 3 5 6 6 9 10 10 10 9 10 10 11 10 5 4 5 5 5 8 9 8 8 10 8 5
2 3 4 4 7 9 10 11 8 8 5 5 4 2 5 4 4 5 4 5 5 5 5 6 6 7 7 7 7 7 7 7 7 8 9 9 9 9 9 9 9 7 7 6 7 7 7 6 4 4 4 6 7 8 9 8 10 10 10 8 7 9 8 6 6 7 7 7 7 10 8 8 7 8
8 7 6 7 6 5 6 6 6 3 2 3 4 3 5 4 4 4 3 4 5 5 6 6 7 7 7 7 7 7 7 7 8 8 8 8 9 9 9 8 8 8 7 7 7 7 6 6 7 7 8 9 10 9 8 8 9 9 9 8 8 7 7 7 7 7 7 9 9 10 9 9 10 8
8 5 3 3 2 3 3 4 4 4 4 5 5 4 5 5 5 5 5 6 6 6 6 6 6 7 7 7 7 7 7 7 7 7 8 8 8 8 8 8 9 9 10 9 9 7 7 7 8 9 9 10 11 12 10 9 8 7 8 8 6 6 6 5 6 8 8 7 8 9 9 9 9 8
6 4 3 3 4 5 4 4 5 5 4 4 5 5 4 4 5 6 5 6 6 6 6 6 6 6 6 6 7 7 8 7 7 8 8 8 8 8 8 9 9 9 9 10 10 9 9 10 10 9 9 9 9 10 10 9 9 7 6 6 6 7 7 7 6 7 7 7 8 9 10 9 8 9
3 2 3 3 4 4 4 4 5 5 5 5 5 5 5 5 5 6 6 8 7 7 7 7 6 6 6 7 7 8 8 8 8 8 7 8 8 8 9 9 9 9 10 10 10 9 10 10 10 11 9 8 8 6 8 8 7 9 9 9 8 9 10 9 8 8 8 9 8 10 11 9 8 7
3 3 3 3 4 4 4 5 5 5 6 6 6 6 6 6 6 6 7 8 7 7 7 7 7 7 7 7 7 8 8 8 8 8 8 8 8 8 8 8 9 10 9 9 10 10 10 10 10 11 11 11 10 10 6 9 12 10 11 11 10 9 10 10 9 10 10 9 8 9 10 11 10 9
5 4 4 4 5 5 5 5 5 5 6 6 6 6 6 6 7 7 7 7 6 7 7 8 7 7 7 8 8 7 8 8 8 8 8 8 8 8 9 9 9 9 9 9 10 10 9 9 9 10 10 10 10 11 12 9 12 11 9 10 11 11 11 11 11 11 10 9 10 10 11 12 11 10
4 4 4 4 4 5 5 5 5 5 6 6 6 6 6 6 6 6 6 6 6 7 7 7 7 7 8 8 8 8 8 8 8 8 8 8 9 8 9 10 10 10 10 10 10 9 8 9 9 9 9 9 10 12 14 14 13 9 5 9 12 14 12 11 12 11 10 10 10 10 10 12 12 11
4 5 5 4 5 4 4 5 5 5 5 5 6 6 6 6 6 7 6 6 7 7 8 7 7 7 8 8 8 8 8 9 9 9 9 9 9 9 10 10 11 11 11 11 9 8 8 9 9 8 8 9 10 11 12 14 16 16 13 11 12 13 12 11 12 12 13 13 12 11 11 10 12 17
4 5 5 5 5 5 5 5 5 6 6 6 6 6 6 7 7 7 7 7 7 7 7 7 7 7 7 8 8 8 8 9 9 9 10 10 10 10 10 10 11 11 11 11 11 10 9 9 8 9 10 10 11 12 12 13 14 15 15 12 11 8 6 9 12 13 14 12 12 14 15 14 14 10
4 4 4 5 5 5 6 5 6 6 6 6 6 6 6 6 7 6 7 7 7 7 7 7 7 7 7 8 9 9 9 9 9 9 9 10 10 11 12 13 10 10 11 11 11 11 10 10 11 11 11 10 10 11 11 11 12 11 13 13 14 13 14 12 11 9 11 12 12 13 14 14 14 12
3 2 3 3 4 5 5 6 6 6 6 6 6 7 7 7 6 7 7 7 7 7 7 7 7 7 8 8 9 9 9 10 10 10 10 11 11 11 11 10 10 10 11 12 12 12 12 11 12 11 10 10 9 10 11 11 13 13 13 13 14 13 12 11 13 14 14 13 14 14 13 13 11 13
4 4 4 4 4 5 5 5 5 6 6 6 6 7 7 7 7 7 7 7 7 7 7 7 7 7 7 8 8 9 9 10 10 11 12 12 11 11 11 10 11 12 12 12 12 12 12 12 11 11 11 11 10 10 12 12 12 13 13 13 14 14 15 16 15 17 19 21 19 16 13 13 14 15
4 4 5 5 5 5 5 6 6 6 6 7 7 7 7 7 8 7 7 8 8 8 9 9 8 8 8 8 8 8 9 9 10 11 11 11 11 11 11 12 12 12 12 12 12 12 12 12 11 12 12 12 11 11 12 13 13 13 13 14 13 14 16 15 14 13 12 12 15 15 18 19 18 20
4 4 4 4 4 5 5 6 6 6 6 6 6 7 7 7 8 8 8 8 9 10 10 10 9 9 10 10 11 11 11 11 11 9 10 11 11 11 11 12 12 12 12 12 13 13 12 13 12 11 11 12 12 13 14 14 14 14 14 15 16 14 14 13 15 17 16 15 13 17 19 19 20 20
Wind_Direction
298 283 281 304 311 307 322 305 301 10 6 305 341 294 308 41 294 307 316 301 307 300 297 300 161 133 232 261 274 276 276 50 167 298 305 303 298 158 241 261 280 270 264 269 274 274 277 282 278 286 289 291 290 287 282 277 272 267 262 261 261 260 259 254 243 226 217 219 217 217 222 237 253 266
269 280 279 284 265 249 220 221 232 220 213 279 279 290 316 87 284 316 310 312 302 299 303 299 298 201 264 296 281 297 315 146 248 306 303 298 300 7 320 287 277 266 253 258 265 265 272 282 281 285 292 291 289 285 279 275 269 263 262 263 265 264 261 258 249 233 214 218 219 219 221 228 241 248
255 278 284 281 285 300 297 323 281 286 277 268 276 289 284 274 316 306 287 288 283 313 299 300 308 315 296 303 323 308 320 216 209 314 304 291 312 286 271 269 266 254 236 242 253 256 261 274 280 288 290 290 289 280 276 280 280 274 271 269 267 266 265 261 254 242 217 215 219 220 220 224 231 239
240 235 252 264 280 292 290 285 296 279 245 249 269 267 277 282 268 251 267 273 289 292 299 309 308 296 314 314 302 313 296 281 190 306 302 293 271 259 273 258 234 237 211 228 243 245 253 259 275 280 281 281 282 280 273 279 281 274 270 269 268 269 268 263 259 249 231 217 218 221 220 220 225 232
260 245 259 268 265 277 278 271 277 282 275 246 230 229 232 241 230 240 255 281 286 284 289 288 286 307 311 294 303 293 299 302 307 317 295 305 289 291 298 323 202 184 195 223 233 232 239 255 265 269 269 274 278 280 276 278 273 271 267 263 264 267 268 267 264 257 240 224 215 220 219 218 219 221
261 243 238 252 252 235 240 258 258 260 267 263 270 261 260 254 250 231 254 268 276 287 285 291 305 293 290 292 301 303 298 297 309 299 310 293 305 311 319 312 236 175 196 218 226 219 235 253 257 256 261 265 273 276 276 275 272 267 261 255 255 256 258 263 260 255 247 233 221 217 215 216 215 215
247 253 248 245 242 242 237 231 246 254 263 285 291 297 305 302 299 290 271 264 275 283 287 289 287 298 308 300 300 292 292 298 286 301 298 312 313 315 317 314 317 174 201 219 221 217 234 240 243 249 255 263 265 267 271 275 274 265 250 245 241 242 248 249 250 245 245 238 226 218 217 214 212 213
239 247 246 256 262 259 256 263 278 285 280 272 265 271 264 268 265 269 270 267 264 275 285 286 288 299 301 293 291 287 291 296 313 311 310 303 313 324 316 314 310 170 207 224 222 220 234 239 243 244 252 257 257 259 265 270 273 266 253 242 235 235 236 238 241 241 238 234 229 226 220 213 213 210
247 249 253 249 251 260 260 247 245 253 263 267 268 266 263 255 266 267 273 276 278 275 278 283 283 288 284 288 286 299 305 308 305 309 318 324 317 316 316 312 317 318 275 247 232 229 234 240 242 246 248 246 248 253 257 260 264 266 261 251 242 236 232 232 232 233 232 227 225 224 222 219 215 208
234 236 232 239 244 248 245 259 264 274 272 273 269 274 281 282 284 280 272 265 262 270 271 279 286 277 285 295 306 299 298 305 309 300 300 296 295 298 304 312 309 304 306 323 291 237 236 239 243 247 244 243 243 248 250 251 253 255 257 251 243 237 234 232 230 228 225 222 220 219 218 218 215 209
231 233 234 227 235 241 240 242 243 240 242 254 267 266 264 265 262 264 266 270 271 270 276 279 276 281 286 298 297 310 314 296 297 301 303 292 295 296 295 294 300 303 314 314 281 269 282 293 278 241 243 243 242 245 246 244 247 246 243 248 240 236 234 234 233 231 226 221 217 215 215 215 213 211
244 237 235 237 224 227 231 232 235 236 247 245 253 252 257 270 279 287 288 289 290 289 287 288 296 306 309 291 291 291 276 283 279 284 298 298 313 303 287 294 303 309 304 297 306 311 296 270 259 258 257 252 248 245 244 243 243 237 237 235 237 232 231 231 234 234 232 227 220 215 213 213 213 211
246 253 250 246 246 223 226 226 357 350 10 330 284 280 281 272 271 275 279 279 281 282 286 292 294 287 282 282 273 283 297 296 295 290 295 309 312 309 308 305 302 299 298 301 308 314 319 304 303 316 317 299 257 238 235 244 236 232 228 228 232 231 227 228 230 234 237 235 229 221 215 213 212 212
253 254 255 254 248 191 206 175 196 233 255 262 284 285 295 293 288 286 282 282 278 279 281 285 291 293 293 296 299 302 299 294 288 303 334 318 314 313 309 301 297 309 304 306 312 307 300 306 308 306 304 303 295 316 295 252 236 208 209 213 222 227 227 227 229 232 236 237 236 230 222 216 215 213
263 257 251 251 183 146 181 192 201 215 211 224 231 244 243 246 253 266 277 282 294 294 289 289 290 291 297 305 312 307 301 304 325 328 325 317 316 308 307 306 304 280 303 308 301 294 299 299 296 299 300 302 299 294 292 350 148 179 192 207 219 226 225 229 230 233 234 235 237 236 231 225 220 217
256 260 269 266 256 211 221 239 233 212 225 228 232 237 247 255 253 249 242 251 263 271 277 282 285 294 296 299 297 298 308 322 321 317 308 297 298 299 296 296 295 306 303 304 301 293 294 296 301 299 294 295 303 308 311 284 231 185 193 203 216 223 233 232 233 237 236 235 235 234 233 230 227 224
281 278 274 283 277 282 162 193 208 227 220 221 227 224 229 234 239 246 253 256 254 263 264 272 274 276 293 297 302 306 310 315 297 294 293 298 296 297 295 292 298 304 316 299 291 292 299 301 297 295 297 306 305 305 310 334 272 228 214 215 219 229 239 242 239 237 238 236 231 230 231 229 227 224
255 268 272 259 265 282 317 18 356 315 301 258 220 228 230 238 231 226 230 233 240 244 258 272 279 281 285 288 296 305 310 297 297 303 301 309 306 306 304 306 300 296 299 296 295 292 295 302 300 297 303 309 304 304 315 309 275 223 214 215 221 230 237 240 238 236 239 241 237 234 231 229 227 224
269 255 268 294 298 14 46 22 2 9 358 323 311 292 283 275 275 263 243 226 224 233 237 247 263 279 275 281 303 309 323 327 328 322 318 312 304 297 297 299 295 296 308 303 310 289 299 306 304 302 309 311 307 308 303 307 292 230 218 216 219 228 235 236 236 235 232 234 237 235 235 235 235 230
360 353 341 327 15 64 41 14 4 11 349 333 308 299 289 285 285 285 295 341 324 297 277 264 279 300 328 336 317 322 318 317 314 315 309 305 298 297 296 290 299 291 273 296 299 300 300 306 299 306 311 313 311 315 313 307 296 253 224 223 224 229 233 235 237 237 232 230 232 233 229 230 231 234
68 37 21 40 25 46 40 15 3 4 350 319 310 301 305 306 304 311 322 0 344 333 320 320 317 306 301 305 310 308 307 297 306 302 295 285 302 309 302 299 300 300 319 306 292 298 297 301 311 311 315 319 316 309 313 316 331 133 214 220 229 230 231 234 237 235 235 232 231 228 224 223 223 222
42 44 45 37 39 35 29 3 5 354 341 323 313 307 303 306 305 311 330 322 316 335 337 309 300 290 285 285 286 281 274 279 294 280 276 298 321 307 310 310 312 311 302 313 0 317 299 317 326 318 319 317 309 313 314 322 324 319 290 243 238 240 236 239 239 236 236 236 235 231 225 216 192 194
22 59 49 47 34 35 20 5 6 2 347 331 316 315 305 297 304 334 347 335 327 335 330 324 316 304 291 280 289 296 331 31 150 204 255 284 287 298 305 308 314 308 302 356 5 331 315 319 321 341 328 315 311 311 325 325 330 318 319 315 271 231 236 242 240 241 240 239 237 235 228 206 184 225
317 100 86 46 26 13 12 3 1 356 355 325 323 314 309 321 325 337 326 321 321 315 307 303 306 310 318 314 306 326 331 318 182 185 220 261 283 295 299 295 291 288 296 348 4 327 309 314 315 342 293 308 309 317 312 308 311 318 318 308 313 317 274 238 252 244 244 239 238 236 227 197 194 226
112 26 47 51 34 16 7 352 347 336 328 306 304 335 349 334 321 321 307 313 301 298 303 304 307 316 324 326 339 336 335 339 339 323 243 188 263 277 286 297 296 299 305 23 15 330 310 316 315 323 313 301 292 304 309 306 304 311 328 322 318 314 313 304 290 276 220 234 238 235 231 207 204 220
52 32 34 41 24 18 355 333 330 329 308 287 297 5 313 299 315 298 292 293 318 328 322 316 319 327 346 351 345 340 342 341 345 334 332 311 185 223 266 277 293 304 306 261 117 313 313 309 311 309 306 304 300 299 305 301 300 311 315 309 313 314 313 311 308 299 305 282 211 213 223 214 210 218
56 51 28 23 16 353 332 313 305 316 329 254 9 312 306 291 286 272 278 332 327 327 328 330 336 335 338 337 332 341 341 337 343 336 338 334 338 276 237 246 251 270 282 288 296 267 276 287 290 290 292 295 298 301 293 299 308 327 310 308 312 313 321 336 312 311 310 306 308 211 217 215 217 222
65 52 26 356 341 316 294 281 271 287 324 348 302 291 295 303 283 291 350 342 346 332 334 334 333 328 329 324 331 339 338 330 331 329 326 331 336 329 322 295 276 274 277 276 346 18 273 280 287 286 295 302 301 298 299 297 298 306 308 304 301 287 292 302 315 325 329 325 319 318 231 220 208 214
49 77 250 254 264 271 278 278 259 243 252 264 279 280 283 282 293 12 344 344 329 331 332 329 329 324 327 329 325 334 325 324 322 324 330 335 328 324 323 320 310 310 305 340 105 153 190 237 252 275 279 289 297 295 296 297 301 300 303 312 310 320 319 344 346 341 328 309 306 315 316 314 303 197
262 247 256 254 252 257 250 264 282 335 287 269 264 273 274 302 26 16 359 339 346 342 336 335 327 328 327 326 328 315 320 323 326 337 340 332 328 333 328 325 323 314 321 329 332 173 198 210 239 267 289 284 278 287 290 294 300 301 302 294 299 304 310 24 341 317 270 277 290 286 280 288 289 284
325 264 290 306 291 279 280 275 284 266 249 265 281 320 333 11 26 7 7 353 348 356 341 333 333 332 330 324 317 329 327 323 343 353 338 330 330 328 329 321 314 322 331 337 342 349 327 312 291 245 261 271 271 266 269 277 286 294 298 300 305 304 319 326 306 297 287 286 292 296 295 295 293 292
319 309 284 255 256 253 245 233 223 219 13 333 331 8 345 343 43 1 3 3 4 360 346 336 340 330 335 329 337 332 334 345 345 339 335 331 324 326 325 317 320 326 329 337 339 335 323 331 328 307 286 280 281 281 277 266 273 283 288 294 304 309 315 314 313 309 314 317 314 313 313 309 300 296
303 286 297 300 311 312 352 355 358 351 349 12 335 9 4 332 19 356 12 9 1 350 341 347 335 337 335 333 332 338 333 337 331 331 326 323 322 323 317 318 322 330 334 332 335 330 337 336 318 303 286 279 270 271 277 283 275 269 281 296 305 304 308 289 292 302 307 302 300 298 294 293 296 285
294 301 320 340 19 350 9 5 359 355 357 9 349 354 357 338 24 349 16 14 353 341 336 342 337 339 332 332 339 335 333 328 330 325 323 325 326 320 326 325 326 331 331 327 328 332 337 329 316 299 289 277 268 255 250 259 272 288 309 323 323 314 316 306 293 289 286 281 281 288 288 286 286 289
263 344 3 15 19 356 5 18 2 351 355 9 351 351 349 351 5 2 14 9 341 340 345 347 337 334 341 337 340 336 329 330 324 327 332 326 323 325 327 323 328 331 329 328 327 335 333 325 321 318 312 304 302 292 239 245 307 341 332 328 329 320 317 317 313 306 305 298 289 284 287 283 281 287
339 360 15 15 26 4 4 15 7 357 359 2 355 351 352 349 6 3 11 352 332 341 346 343 330 340 340 339 340 331 328 328 323 328 328 325 328 326 325 326 327 326 325 325 330 329 327 322 326 326 325 325 319 320 313 57 44 6 341 323 318 319 315 314 311 305 299 293 286 287 292 297 305 310
10 12 9 10 17 8 12 3 7 356 2 355 351 353 352 349 356 2 357 329 341 346 346 327 331 340 338 339 330 326 330 327 328 329 324 329 327 328 326 327 326 323 323 326 324 319 319 322 330 328 326 323 325 321 315 318 345 347 316 319 318 313 314 310 305 300 295 298 298 298 300 305 303 302
15 14 10 14 15 4 6 5 358 358 1 352 350 348 355 349 349 352 341 334 359 343 335 329 332 338 340 332 328 332 328 328 328 325 328 327 331 331 331 326 325 328 325 317 315 315 322 328 330 334 337 337 325 320 313 318 313 310 9 333 305 302 304 301 302 303 305 303 304 306 303 300 300 304
19 4 11 10 8 5 358 5 352 355 350 353 350 349 346 342 350 340 336 356 355 340 327 321 332 342 328 329 334 329 328 328 327 328 327 330 330 332 328 327 326 323 316 312 316 321 330 326 329 342 350 330 316 306 306 301 298 301 301 282 276 282 281 296 307 312 315 313 307 307 300 295 290 286
18 357 8 4 356 357 356 355 354 356 346 354 348 349 342 348 345 332 347 346 337 327 319 323 329 329 328 336 333 328 327 327 327 327 329 328 331 330 328 328 320 313 312 316 320 325 322 326 330 336 323 307 293 290 286 282 281 282 287 282 246 231 286 318 314 309 305 308 314 312 306 304 299 302
14 352 5 350 354 354 351 349 349 349 341 345 340 344 346 341 322 335 341 319 317 324 326 324 326 337 335 335 333 333 330 328 328 325 327 327 327 326 322 318 311 317 319 317 318 317 319 325 318 295 280 293 293 292 287 287 293 299 304 304 316 314 302 286 283 300 307 311 308 302 298 299 303 301
3 358 358 351 356 351 344 351 342 339 336 345 338 343 338 320 317 327 315 319 333 326 316 326 339 337 338 338 335 335 331 328 326 329 330 329 323 321 319 319 317 321 320 316 315 313 313 313 311 314 306 303 303 303 300 300 300 303 304 308 306 301 297 306 309 293 281 285 291 289 290 295 298 296
3 3 346 7 351 354 348 342 340 338 338 331 333 335 322 322 332 330 329 329 328 326 329 331 332 334 336 336 336 332 329 325 329 330 326 319 318 318 317 316 319 316 313 309 308 310 313 315 314 312 313 309 303 301 297 301 302 300 302 306 309 312 305 295 277 267 264 260 253 253 268 281 296 293
3 352 356 356 340 343 341 341 337 333 331 333 332 324 327 329 323 327 330 334 332 330 333 329 328 328 330 330 331 327 322 327 326 319 314 316 314 314 316 317 316 314 312 312 313 313 312 312 313 316 311 308 308 303 303 305 302 302 303 304 304 304 304 309 307 300 288 282 285 273 256 246 242 254
344 335 335 337 337 340 338 336 332 334 334 327 325 327 326 324 326 327 329 333 332 329 323 320 323 327 338 342 338 329 326 319 311 311 317 315 316 316 315 314 313 313 313 314 314 313 315 314 312 311 307 310 314 310 307 304 304 306 305 303 303 304 305 311 316 313 307 301 282 266 264 259 255 256